{"data":{"norad_id":52127,"intl_designator":"2022-029AR","name":"STARLINK-3715","alt_names":[],"object_type":"PAYLOAD","status":"ACTIVE","operator":null,"country":"US","launch_date":"2022-03-19","launch_site_code":"AFETR","launch_vehicle":null,"mission":null,"orbit_class":"UNKNOWN","rcs_meters":null,"size_class":null,"mass_kg":null,"dimensions":null,"purposes":["comms"],"wikipedia_slug":null,"has_3d_model":false,"image_url":null,"decayed_at":null,"tle_current":{"epoch":"2026-09-19T15:38:34.002816Z","epoch_age_seconds":129126,"freshness":"FRESH","line1":"1 52127U 22029AR  26262.65178244  .00000446  00000+0  23686-4 0  9999","line2":"2 52127  53.1594 271.5778 0001206  77.8137 282.3001 15.35401371250299","mean_motion":15.35401371,"eccentricity":0.0001206,"inclination_deg":53.1594,"raan_deg":271.5778,"arg_perigee_deg":77.8137,"mean_anomaly_deg":282.3001,"bstar":2.3686e-5,"rev_number":25029,"period_min":93.786551659918,"perigee_km":458.9039256775,"apogee_km":460.55321885353,"semimajor_km":6837.8655722655,"source":"CELESTRAK","updated_at":"2026-09-20T09:00:39.990944Z"}}}